Time,TemperatureF,DewpointF,PressureIn,WindDirection,WindDirectionDegrees,WindSpeedMPH,WindSpeedGustMPH,Humidity,HourlyPrecipIn,Conditions,Clouds,dailyrainin,SoftwareType,DateUTC
2013-05-21 00:03:00,65.0,63.0,29.96,SW,217,0.0,0.0,93,0.00,,,0.00,,2013-05-21 04:03:00,
2013-05-21 00:13:00,65.0,63.0,29.96,SW,217,0.0,0.0,93,0.00,,,0.00,,2013-05-21 04:13:00,
2013-05-21 00:23:00,64.0,62.0,29.96,SW,217,0.0,0.0,93,0.00,,,0.00,,2013-05-21 04:23:00,
2013-05-21 00:33:00,64.0,62.0,29.95,SW,217,0.0,0.0,93,0.00,,,0.00,,2013-05-21 04:33:00,
2013-05-21 00:42:00,64.0,62.0,29.95,SW,217,0.0,0.0,93,0.00,,,0.00,,2013-05-21 04:42:00,
2013-05-21 00:52:00,64.0,62.0,29.95,SW,217,0.0,0.0,93,0.00,,,0.00,,2013-05-21 04:52:00,
2013-05-21 01:02:00,63.0,61.0,29.95,SW,217,0.0,0.0,93,0.00,,,0.00,,2013-05-21 05:02:00,
2013-05-21 01:12:00,63.0,61.0,29.95,SW,217,0.0,0.0,93,0.00,,,0.00,,2013-05-21 05:12:00,
2013-05-21 01:22:00,63.0,61.0,29.95,SW,217,0.0,0.0,94,0.00,,,0.00,,2013-05-21 05:22:00,
2013-05-21 01:32:00,62.0,61.0,29.95,SW,217,0.0,0.0,95,0.00,,,0.00,,2013-05-21 05:32:00,
2013-05-21 01:42:00,62.0,61.0,29.95,SW,217,0.0,0.0,95,0.00,,,0.00,,2013-05-21 05:42:00,
2013-05-21 01:51:00,62.0,61.0,29.95,SW,217,0.0,0.0,95,0.00,,,0.00,,2013-05-21 05:51:00,
2013-05-21 02:02:00,62.0,61.0,29.94,SW,217,0.0,0.0,95,0.00,,,0.00,,2013-05-21 06:02:00,
2013-05-21 02:12:00,62.0,61.0,29.94,SW,217,0.0,0.0,95,0.00,,,0.00,,2013-05-21 06:12:00,
2013-05-21 02:21:00,61.0,60.0,29.94,SW,217,0.0,0.0,96,0.00,,,0.00,,2013-05-21 06:21:00,
2013-05-21 02:32:00,61.0,60.0,29.94,SW,217,0.0,0.0,96,0.00,,,0.00,,2013-05-21 06:32:00,
2013-05-21 02:42:00,61.0,60.0,29.94,SW,217,0.0,0.0,96,0.00,,,0.00,,2013-05-21 06:42:00,
2013-05-21 02:52:00,61.0,60.0,29.94,SW,217,0.0,0.0,96,0.00,,,0.00,,2013-05-21 06:52:00,
2013-05-21 03:01:00,60.0,59.0,29.94,SW,217,0.0,0.0,96,0.00,,,0.00,,2013-05-21 07:01:00,
2013-05-21 03:11:00,60.0,59.0,29.94,SW,217,0.0,0.0,96,0.00,,,0.00,,2013-05-21 07:11:00,
2013-05-21 03:22:00,60.0,59.0,29.94,SW,217,0.0,0.0,96,0.00,,,0.00,,2013-05-21 07:22:00,
2013-05-21 03:32:00,60.0,59.0,29.95,SW,217,0.0,0.0,96,0.00,,,0.00,,2013-05-21 07:32:00,
2013-05-21 03:41:00,60.0,59.0,29.95,SW,217,0.0,0.0,96,0.00,,,0.00,,2013-05-21 07:41:00,
2013-05-21 03:52:00,60.0,59.0,29.94,SW,217,0.0,0.0,96,0.00,,,0.00,,2013-05-21 07:52:00,
2013-05-21 04:02:00,60.0,59.0,29.95,SW,217,0.0,0.0,96,0.00,,,0.00,,2013-05-21 08:02:00,
2013-05-21 04:11:00,60.0,59.0,29.95,SW,217,0.0,0.0,96,0.00,,,0.00,,2013-05-21 08:11:00,
2013-05-21 04:21:00,59.0,58.0,29.95,SW,217,0.0,0.0,96,0.00,,,0.00,,2013-05-21 08:21:00,
2013-05-21 04:31:00,60.0,59.0,29.95,SW,217,0.0,0.0,97,0.00,,,0.00,,2013-05-21 08:31:00,
2013-05-21 04:42:00,60.0,59.0,29.95,SW,217,0.0,0.0,97,0.00,,,0.00,,2013-05-21 08:42:00,
2013-05-21 04:52:00,60.0,59.0,29.95,SW,217,0.0,0.0,97,0.00,,,0.00,,2013-05-21 08:52:00,
2013-05-21 05:01:00,60.0,59.0,29.95,SW,217,0.0,2.0,97,0.00,,,0.00,,2013-05-21 09:01:00,
2013-05-21 05:11:00,60.0,59.0,29.95,SW,217,0.0,2.0,97,0.00,,,0.00,,2013-05-21 09:11:00,
2013-05-21 05:21:00,60.0,59.0,29.96,SW,217,0.0,1.0,97,0.00,,,0.00,,2013-05-21 09:21:00,
2013-05-21 05:33:00,59.0,58.0,29.96,SW,217,0.0,1.0,98,0.00,,,0.00,,2013-05-21 09:33:00,
2013-05-21 05:42:00,59.0,58.0,29.96,SW,217,0.0,1.0,98,0.00,,,0.00,,2013-05-21 09:42:00,
2013-05-21 05:53:00,59.0,58.0,29.96,SW,217,0.0,1.0,98,0.00,,,0.00,,2013-05-21 09:53:00,
2013-05-21 06:02:00,59.0,58.0,29.96,SW,217,0.0,1.0,98,0.00,,,0.00,,2013-05-21 10:02:00,
2013-05-21 06:12:00,59.0,58.0,29.96,SW,217,0.0,1.0,98,0.00,,,0.00,,2013-05-21 10:12:00,
2013-05-21 06:22:00,58.0,57.0,29.96,SW,217,0.0,0.0,98,0.00,,,0.00,,2013-05-21 10:22:00,
2013-05-21 06:32:00,59.0,58.0,29.97,SW,218,0.0,2.0,98,0.00,,,0.00,,2013-05-21 10:32:00,
2013-05-21 06:42:00,59.0,58.0,29.97,SW,218,0.0,2.0,98,0.00,,,0.00,,2013-05-21 10:42:00,
2013-05-21 06:52:00,58.0,57.0,29.97,SW,232,0.0,2.0,98,0.00,,,0.00,,2013-05-21 10:52:00,
2013-05-21 07:02:00,58.0,57.0,29.98,West,264,1.0,3.0,98,0.00,,,0.00,,2013-05-21 11:02:00,
2013-05-21 07:12:00,58.0,57.0,29.98,West,264,1.0,3.0,98,0.00,,,0.00,,2013-05-21 11:12:00,
2013-05-21 07:22:00,57.0,56.0,29.98,West,271,0.0,3.0,98,0.00,,,0.00,,2013-05-21 11:22:00,
2013-05-21 07:32:00,58.0,57.0,29.98,West,275,1.0,4.0,98,0.00,,,0.00,,2013-05-21 11:32:00,
2013-05-21 07:42:00,58.0,57.0,29.98,West,275,1.0,4.0,98,0.00,,,0.00,,2013-05-21 11:42:00,
2013-05-21 07:52:00,58.0,57.0,29.98,West,275,0.0,1.0,98,0.00,,,0.00,,2013-05-21 11:52:00,
2013-05-21 08:01:00,59.0,59.0,29.98,West,275,0.0,2.0,99,0.00,,,0.00,,2013-05-21 12:01:00,
2013-05-21 08:11:00,59.0,59.0,29.98,West,275,0.0,2.0,99,0.00,,,0.00,,2013-05-21 12:11:00,
2013-05-21 08:21:00,59.0,59.0,29.98,West,275,0.0,3.0,99,0.00,,,0.00,,2013-05-21 12:21:00,
2013-05-21 08:32:00,60.0,60.0,29.99,West,275,0.0,2.0,99,0.00,,,0.00,,2013-05-21 12:32:00,
2013-05-21 08:42:00,60.0,60.0,29.99,West,275,0.0,2.0,99,0.00,,,0.00,,2013-05-21 12:42:00,
2013-05-21 08:52:00,61.0,61.0,29.99,West,277,1.0,5.0,99,0.00,,,0.00,,2013-05-21 12:52:00,
2013-05-21 09:01:00,62.0,62.0,30.00,West,277,1.0,3.0,99,0.00,,,0.00,,2013-05-21 13:01:00,
2013-05-21 09:12:00,62.0,62.0,30.00,West,277,1.0,3.0,99,0.00,,,0.00,,2013-05-21 13:12:00,
2013-05-21 09:22:00,62.0,62.0,30.00,West,277,1.0,3.0,99,0.00,,,0.00,,2013-05-21 13:22:00,
2013-05-21 09:32:00,63.0,63.0,30.00,West,279,1.0,4.0,99,0.00,,,0.00,,2013-05-21 13:32:00,
2013-05-21 09:42:00,63.0,63.0,30.00,West,279,1.0,4.0,99,0.00,,,0.00,,2013-05-21 13:42:00,
2013-05-21 09:52:00,65.0,65.0,30.00,NW,315,1.0,4.0,99,0.00,,,0.00,,2013-05-21 13:52:00,
2013-05-21 10:02:00,66.0,65.0,29.99,SW,227,3.0,6.0,96,0.00,,,0.00,,2013-05-21 14:02:00,
2013-05-21 10:11:00,66.0,65.0,29.99,SW,227,3.0,6.0,96,0.00,,,0.00,,2013-05-21 14:11:00,
2013-05-21 10:21:00,66.0,65.0,29.99,SW,227,3.0,6.0,96,0.00,,,0.00,,2013-05-21 14:21:00,
2013-05-21 10:32:00,70.0,66.0,29.98,SW,234,4.0,8.0,86,0.00,,,0.00,,2013-05-21 14:32:00,
2013-05-21 10:42:00,70.0,66.0,29.98,SW,234,4.0,8.0,86,0.00,,,0.00,,2013-05-21 14:42:00,
2013-05-21 10:52:00,70.0,66.0,29.98,SW,234,4.0,8.0,86,0.00,,,0.00,,2013-05-21 14:52:00,
2013-05-21 11:01:00,72.0,65.0,29.98,West,263,3.0,8.0,80,0.00,,,0.00,,2013-05-21 15:01:00,
2013-05-21 11:11:00,72.0,65.0,29.98,West,263,3.0,8.0,80,0.00,,,0.00,,2013-05-21 15:11:00,
2013-05-21 11:21:00,72.0,65.0,29.98,West,263,3.0,8.0,80,0.00,,,0.00,,2013-05-21 15:21:00,
2013-05-21 11:33:00,73.0,66.0,29.99,West,273,5.0,10.0,79,0.00,,,0.00,,2013-05-21 15:33:00,
2013-05-21 11:42:00,74.0,67.0,29.98,WNW,288,4.0,9.0,80,0.00,,,0.00,,2013-05-21 15:42:00,
2013-05-21 11:53:00,74.0,67.0,29.98,WNW,288,4.0,9.0,80,0.00,,,0.00,,2013-05-21 15:53:00,
2013-05-21 12:03:00,75.0,67.0,29.98,West,261,4.0,10.0,75,0.00,,,0.00,,2013-05-21 16:03:00,
2013-05-21 12:13:00,75.0,67.0,29.98,West,261,4.0,10.0,75,0.00,,,0.00,,2013-05-21 16:13:00,
2013-05-21 12:23:00,75.0,65.0,29.97,WNW,299,3.0,11.0,72,0.00,,,0.00,,2013-05-21 16:23:00,
2013-05-21 12:32:00,77.0,65.0,29.96,WSW,257,7.0,11.0,66,0.00,,,0.00,,2013-05-21 16:32:00,
2013-05-21 12:42:00,77.0,64.0,29.96,WNW,298,4.0,10.0,65,0.00,,,0.00,,2013-05-21 16:42:00,
2013-05-21 12:52:00,77.0,64.0,29.96,WNW,298,4.0,10.0,65,0.00,,,0.00,,2013-05-21 16:52:00,
2013-05-21 13:02:00,78.0,65.0,29.96,WSW,247,3.0,9.0,64,0.00,,,0.00,,2013-05-21 17:02:00,
2013-05-21 13:12:00,78.0,65.0,29.96,WSW,247,3.0,9.0,64,0.00,,,0.00,,2013-05-21 17:12:00,
2013-05-21 13:23:00,79.0,64.0,29.96,North,5,3.0,8.0,61,0.00,,,0.00,,2013-05-21 17:23:00,
2013-05-21 13:33:00,79.0,64.0,29.95,NW,312,5.0,11.0,60,0.00,,,0.00,,2013-05-21 17:33:00,
2013-05-21 13:43:00,79.0,63.0,29.95,WNW,284,8.0,14.0,58,0.00,,,0.00,,2013-05-21 17:43:00,
2013-05-21 13:52:00,79.0,63.0,29.95,WNW,284,8.0,14.0,58,0.00,,,0.00,,2013-05-21 17:52:00,
2013-05-21 14:02:00,79.0,63.0,29.94,WNW,286,6.0,16.0,58,0.00,,,0.00,,2013-05-21 18:02:00,
2013-05-21 14:12:00,79.0,63.0,29.94,WNW,286,6.0,16.0,58,0.00,,,0.00,,2013-05-21 18:12:00,
2013-05-21 14:22:00,79.0,62.0,29.93,West,273,5.0,13.0,56,0.00,,,0.00,,2013-05-21 18:22:00,
2013-05-21 14:32:00,81.0,63.0,29.93,WNW,297,4.0,14.0,55,0.00,,,0.00,,2013-05-21 18:32:00,
2013-05-21 14:42:00,82.0,63.0,29.93,NW,325,3.0,9.0,52,0.00,,,0.00,,2013-05-21 18:42:00,
2013-05-21 14:52:00,82.0,63.0,29.93,NW,325,3.0,9.0,52,0.00,,,0.00,,2013-05-21 18:52:00,
2013-05-21 15:01:00,82.0,63.0,29.92,WNW,282,5.0,11.0,52,0.00,,,0.00,,2013-05-21 19:01:00,
2013-05-21 15:11:00,82.0,63.0,29.92,WNW,282,5.0,11.0,52,0.00,,,0.00,,2013-05-21 19:11:00,
2013-05-21 15:21:00,83.0,64.0,29.91,SW,225,3.0,9.0,52,0.00,,,0.00,,2013-05-21 19:21:00,
2013-05-21 15:32:00,83.0,62.0,29.91,NNW,330,5.0,12.0,49,0.00,,,0.00,,2013-05-21 19:32:00,
2013-05-21 15:42:00,83.0,62.0,29.91,NNW,330,5.0,12.0,49,0.00,,,0.00,,2013-05-21 19:42:00,
2013-05-21 15:52:00,83.0,63.0,29.90,West,259,3.0,9.0,51,0.00,,,0.00,,2013-05-21 19:52:00,
2013-05-21 16:03:00,83.0,62.0,29.89,WNW,302,3.0,8.0,50,0.00,,,0.00,,2013-05-21 20:03:00,
2013-05-21 16:11:00,83.0,62.0,29.89,WNW,302,3.0,8.0,50,0.00,,,0.00,,2013-05-21 20:11:00,
2013-05-21 16:22:00,84.0,63.0,29.89,West,281,4.0,12.0,50,0.00,,,0.00,,2013-05-21 20:22:00,
2013-05-21 16:32:00,84.0,62.0,29.88,NW,313,1.0,9.0,47,0.00,,,0.00,,2013-05-21 20:32:00,
2013-05-21 16:42:00,84.0,62.0,29.88,NW,313,1.0,9.0,47,0.00,,,0.00,,2013-05-21 20:42:00,
2013-05-21 16:52:00,84.0,63.0,29.88,SW,234,5.0,11.0,49,0.00,,,0.00,,2013-05-21 20:52:00,
2013-05-21 17:02:00,84.0,63.0,29.88,West,276,3.0,8.0,49,0.00,,,0.00,,2013-05-21 21:02:00,
2013-05-21 17:11:00,84.0,63.0,29.88,West,276,3.0,8.0,49,0.00,,,0.00,,2013-05-21 21:11:00,
2013-05-21 17:22:00,84.0,63.0,29.87,West,273,3.0,9.0,50,0.00,,,0.00,,2013-05-21 21:22:00,
2013-05-21 17:33:00,83.0,63.0,29.86,WSW,250,3.0,8.0,51,0.00,,,0.00,,2013-05-21 21:33:00,
2013-05-21 17:43:00,83.0,63.0,29.86,WSW,250,3.0,8.0,51,0.00,,,0.00,,2013-05-21 21:43:00,
2013-05-21 17:53:00,83.0,63.0,29.85,WSW,253,2.0,7.0,51,0.00,,,0.00,,2013-05-21 21:53:00,
2013-05-21 18:02:00,83.0,61.0,29.85,WSW,254,2.0,8.0,48,0.00,,,0.00,,2013-05-21 22:02:00,
2013-05-21 18:12:00,83.0,61.0,29.85,WSW,254,2.0,8.0,48,0.00,,,0.00,,2013-05-21 22:12:00,
2013-05-21 18:23:00,84.0,62.0,29.85,WNW,295,3.0,8.0,47,0.00,,,0.00,,2013-05-21 22:23:00,
2013-05-21 18:33:00,83.0,61.0,29.85,West,271,3.0,7.0,48,0.00,,,0.00,,2013-05-21 22:33:00,
2013-05-21 18:42:00,83.0,61.0,29.85,West,271,3.0,7.0,48,0.00,,,0.00,,2013-05-21 22:42:00,
2013-05-21 18:52:00,83.0,62.0,29.85,West,266,3.0,8.0,49,0.00,,,0.00,,2013-05-21 22:52:00,
2013-05-21 19:02:00,83.0,62.0,29.85,WSW,247,2.0,5.0,50,0.00,,,0.00,,2013-05-21 23:02:00,
2013-05-21 19:12:00,83.0,62.0,29.85,WSW,247,2.0,5.0,50,0.00,,,0.00,,2013-05-21 23:12:00,
2013-05-21 19:22:00,82.0,62.0,29.85,SW,215,2.0,7.0,51,0.00,,,0.00,,2013-05-21 23:22:00,
2013-05-21 19:32:00,82.0,62.0,29.84,SW,216,2.0,7.0,51,0.00,,,0.00,,2013-05-21 23:32:00,
2013-05-21 19:42:00,81.0,62.0,29.84,South,190,0.0,4.0,52,0.00,,,0.00,,2013-05-21 23:42:00,
2013-05-21 19:52:00,81.0,62.0,29.84,South,190,0.0,4.0,52,0.00,,,0.00,,2013-05-21 23:52:00,
2013-05-21 20:01:00,80.0,64.0,29.85,ESE,121,3.0,7.0,58,0.00,,,0.00,,2013-05-22 00:01:00,
2013-05-21 20:11:00,80.0,64.0,29.85,ESE,121,3.0,7.0,58,0.00,,,0.00,,2013-05-22 00:11:00,
2013-05-21 20:21:00,79.0,66.0,29.85,WSW,238,1.0,11.0,65,0.00,,,0.00,,2013-05-22 00:21:00,
2013-05-21 20:32:00,78.0,66.0,29.85,WSW,248,2.0,8.0,67,0.00,,,0.00,,2013-05-22 00:32:00,
2013-05-21 20:42:00,78.0,66.0,29.85,WSW,248,2.0,8.0,67,0.00,,,0.00,,2013-05-22 00:42:00,
2013-05-21 20:51:00,77.0,66.0,29.85,SSW,207,3.0,9.0,68,0.00,,,0.00,,2013-05-22 00:51:00,
2013-05-21 21:01:00,76.0,65.0,29.86,SW,226,5.0,10.0,70,0.00,,,0.00,,2013-05-22 01:01:00,
2013-05-21 21:11:00,76.0,65.0,29.86,SW,226,5.0,10.0,70,0.00,,,0.00,,2013-05-22 01:11:00,
2013-05-21 21:21:00,76.0,66.0,29.86,West,265,1.0,8.0,72,0.00,,,0.00,,2013-05-22 01:21:00,
2013-05-21 21:32:00,76.0,67.0,29.87,NNW,331,0.0,3.0,73,0.00,,,0.00,,2013-05-22 01:32:00,
2013-05-21 21:42:00,75.0,67.0,29.87,WNW,286,0.0,3.0,75,0.00,,,0.00,,2013-05-22 01:42:00,
2013-05-21 21:52:00,75.0,67.0,29.87,WNW,286,0.0,3.0,75,0.00,,,0.00,,2013-05-22 01:52:00,
2013-05-21 22:02:00,74.0,66.0,29.88,West,278,0.0,2.0,75,0.00,,,0.00,,2013-05-22 02:02:00,
2013-05-21 22:11:00,74.0,66.0,29.88,West,278,0.0,2.0,75,0.00,,,0.00,,2013-05-22 02:11:00,
2013-05-21 22:22:00,74.0,66.0,29.88,West,278,0.0,1.0,77,0.00,,,0.00,,2013-05-22 02:22:00,
2013-05-21 22:32:00,73.0,66.0,29.89,WSW,245,0.0,3.0,78,0.00,,,0.00,,2013-05-22 02:32:00,
2013-05-21 22:42:00,73.0,66.0,29.89,WSW,245,0.0,1.0,79,0.00,,,0.00,,2013-05-22 02:42:00,
2013-05-21 22:52:00,73.0,66.0,29.89,WSW,245,0.0,1.0,79,0.00,,,0.00,,2013-05-22 02:52:00,
2013-05-21 23:01:00,73.0,66.0,29.90,West,275,3.0,5.0,79,0.00,,,0.00,,2013-05-22 03:01:00,
2013-05-21 23:11:00,73.0,66.0,29.90,West,275,3.0,5.0,79,0.00,,,0.00,,2013-05-22 03:11:00,
2013-05-21 23:22:00,72.0,62.0,29.92,NNW,340,6.0,15.0,71,0.00,,,0.00,,2013-05-22 03:22:00,
2013-05-21 23:33:00,71.0,59.0,29.92,NNW,330,3.0,13.0,67,0.00,,,0.00,,2013-05-22 03:33:00,
2013-05-21 23:43:00,68.0,62.0,29.92,West,269,5.0,14.0,80,0.00,,,0.00,,2013-05-22 03:43:00,
2013-05-21 23:53:00,68.0,62.0,29.92,West,269,5.0,14.0,80,0.00,,,0.00,,2013-05-22 03:53:00,